Weather History for BGGH - February, 2013

Change the Weather History Date:

Wednesday, February 27, 2013

  Actual Average Record
Temperature  
Mean Temperature 18 °F -  
Max Temperature 23 °F 21 °F 50 °F (2006)
Min Temperature 15 °F 15 °F -2 °F (1998)
Degree Days  
Heating Degree Days 47    
Moisture  
Dew Point 8 °F    
Average Humidity 62    
Maximum Humidity 68    
Minimum Humidity 48    
Precipitation  
Precipitation 0.02 in - - ()
Sea Level Pressure  
Sea Level Pressure 30.08 in    
Wind  
Wind Speed 5 mph ()    
Max Wind Speed 13 mph    
Max Gust Speed -    
Visibility 6.5 miles    
Events Snow    
Averages and records for this station are not official NWS values.
T = Trace of Precipitation, MM = Missing Value Source: Averaged Metar Reports

Daily Weather History Graph

Daily Weather History Graph

Search for Another Location

Airport or City:

Trip Planner

Search our weather history database for the weather conditions in past years. The results will help you decide how hot, cold, wet, or windy it might be!

Date:

Astronomy

Feb. 27, 2013 Rise Set
Actual Time 7:40 AM WGT 5:39 PM WGT
Civil Twilight 6:52 AM WGT 6:28 PM WGT
Nautical Twilight 5:57 AM WGT 7:23 PM WGT
Astronomical Twilight 5:00 AM WGT 8:20 PM WGT
Moon 9:01 PM WGT (2/27) 7:18 AM WGT (2/27)
Length of Visible Light 11h 35m
Length of Day
9h 58m
Waning Gibbous, 96% of the Moon is Illuminated
Feb 27
Waning Gibbous
Mar 4
Last Quarter
Mar 11
New
Mar 19
First Quarter
Mar 27
Full

Hourly Weather History & Observations

Time (WGT) Temp. Windchill Dew Point Humidity Pressure Visibility Wind Dir Wind Speed Gust Speed Precip Events Conditions
12:00 AM 17 °F - 8 °F 54% 30.12 in - NW 3.5 mph - -   Mostly Cloudy
12:20 AM 15.8 °F 10.2 °F 6.8 °F 68% 30.09 in 6.2 mi NNW 3.5 mph - N/A Snow Light Snow Showers
12:50 AM 15.8 °F 8.6 °F 6.8 °F 68% 30.09 in 6.2 mi North 4.6 mph - N/A Snow Light Snow
1:20 AM 15.8 °F 8.6 °F 6.8 °F 68% 30.09 in 6.2 mi North 4.6 mph - N/A Snow Light Snow Grains
1:50 AM 15.8 °F - 6.8 °F 68% 30.12 in 6.2 mi Calm Calm - N/A Snow Light Snow Showers
2:20 AM 15.8 °F - 6.8 °F 68% 30.12 in 6.2 mi North 2.3 mph - N/A Snow Light Snow Showers
2:50 AM 17.6 °F - 6.8 °F 63% 30.12 in 6.2 mi North 2.3 mph - N/A Snow Light Snow Showers
3:00 AM 17 °F - 9 °F 58% 30.12 in 16 mi Calm Calm - - Snow Light Snow Showers
3:20 AM 15.8 °F - 6.8 °F 68% 30.12 in 6.2 mi North 1.2 mph - N/A Snow Light Snow Showers
3:50 AM 17.6 °F 10.7 °F 6.8 °F 63% 30.12 in 6.2 mi North 4.6 mph - N/A   Light Freezing Drizzle
4:20 AM 17.6 °F 9.3 °F 6.8 °F 63% 30.12 in 6.2 mi NNE 5.8 mph - N/A Snow Light Snow
4:50 AM 17.6 °F 9.3 °F 8.6 °F 68% 30.15 in 6.2 mi NNE 5.8 mph - N/A Snow Light Snow Showers
5:20 AM 17.6 °F 6.4 °F 6.8 °F 63% 30.12 in 6.2 mi ESE 9.2 mph - N/A Snow Light Snow
5:50 AM 17.6 °F 5.7 °F 6.8 °F 63% 30.12 in 6.2 mi ESE 10.4 mph - N/A Snow Light Snow
6:00 AM 17 °F - 8 °F 55% 30.13 in - East 5.8 mph - -   Overcast
6:50 AM 17.6 °F 8.2 °F 6.8 °F 63% 30.15 in 6.2 mi SE 6.9 mph - N/A Snow Light Snow
7:50 AM 17.6 °F 9.3 °F 6.8 °F 63% 30.12 in 6.2 mi ESE 5.8 mph - N/A Snow Light Snow
8:50 AM 17.6 °F 8.2 °F 8.6 °F 68% 30.12 in 6.2 mi SE 6.9 mph - N/A Snow Light Snow
9:00 AM 18 °F - 9 °F 56% 30.14 in - East 1.2 mph - -   Overcast
9:50 AM 19.4 °F 12.8 °F 8.6 °F 63% 30.12 in 6.2 mi SE 4.6 mph - N/A Snow Light Snow
11:50 AM 21.2 °F 13.6 °F 8.6 °F 58% 30.12 in 6.2 mi East 5.8 mph - N/A   Mostly Cloudy
12:00 PM 20 °F - 9 °F 48% 30.11 in - SSE 8.1 mph - -   Scattered Clouds
12:50 PM 21.2 °F 14.9 °F 8.6 °F 58% 30.09 in 6.2 mi SE 4.6 mph - N/A   Mostly Cloudy
1:50 PM 21.2 °F 14.9 °F 8.6 °F 58% 30.09 in 6.2 mi ESE 4.6 mph - N/A   Mostly Cloudy
2:50 PM 17.6 °F 4.3 °F 8.6 °F 68% 30.06 in 6.2 mi ENE 12.7 mph - N/A   Mostly Cloudy
3:00 PM 19 °F - 9 °F 53% 30.06 in - ENE 9.2 mph - -   Mostly Cloudy
3:50 PM 17.6 °F 5.0 °F 8.6 °F 68% 30.04 in 6.2 mi ENE 11.5 mph - N/A   Mostly Cloudy
4:50 PM 17.6 °F 5.7 °F 8.6 °F 68% 30.04 in 6.2 mi ENE 10.4 mph - N/A   Mostly Cloudy
5:50 PM 19.4 °F 8.6 °F 6.8 °F 58% 30.04 in 6.2 mi ENE 9.2 mph - N/A   Mostly Cloudy
6:00 PM 19 °F - 8 °F 50% 30.04 in - NE 5.8 mph - -   Overcast
6:50 PM 19.4 °F 8.6 °F 8.6 °F 63% 30.04 in 6.2 mi East 9.2 mph - N/A   Overcast
7:20 PM 19.4 °F 11.5 °F 6.8 °F 58% 30.04 in 6.2 mi East 5.8 mph - N/A   Overcast
7:50 PM 19.4 °F 11.5 °F 6.8 °F 58% 30.04 in 6.2 mi ENE 5.8 mph - N/A   Mostly Cloudy
8:20 PM 19.4 °F 11.5 °F 6.8 °F 58% 30.04 in 6.2 mi East 5.8 mph - N/A   Scattered Clouds
8:50 PM 19.4 °F 8.6 °F 8.6 °F 63% 30.04 in 6.2 mi East 9.2 mph - N/A   Unknown
9:00 PM 20 °F - 10 °F 53% 30.03 in - NE 4.6 mph - -   Scattered Clouds
9:20 PM 19.4 °F 7.9 °F 10.4 °F 68% 30.04 in 6.2 mi East 10.4 mph - N/A   Mostly Cloudy
9:50 PM 19.4 °F 6.6 °F 10.4 °F 68% 30.04 in 6.2 mi ENE 12.7 mph - N/A   Mostly Cloudy
10:20 PM 19.4 °F 7.2 °F 10.4 °F 68% 30.01 in 6.2 mi ENE 11.5 mph - N/A   Overcast
10:50 PM 19.4 °F 8.6 °F 10.4 °F 68% 30.01 in 6.2 mi ENE 9.2 mph - N/A   Mostly Cloudy
11:20 PM 21.2 °F 10.1 °F 12.2 °F 68% 30.01 in 6.2 mi ENE 10.4 mph - N/A   Overcast
11:50 PM 23.0 °F 12.4 °F 14.0 °F 68% 29.98 in 6.2 mi ENE 10.4 mph - N/A   Mostly Cloudy